Tracking 18823 objects as of 20-October-2017
HD Live streaming from Space Station
objects crossing your sky now

SJ-7

Track SJ-7 now!
10-day predictions
SJ-7 is classified as:


NORAD ID: 28737
Int'l Code: 2005-024A
Perigee: 565.7 km
Apogee: 610.4 km
Inclination: 97.7 °
Period: 96.3 minutes
Semi major axis: 6959 km
RCS: 3.0015 m2 (large)
Launch date: July 5, 2005
Source: People's Republic of China (PRC)
Launch site: Jiuquan Satellite Launch Center, China (JSC)
aabbcc
Your satellite tracking list
Your tracking list is empty





NASA's NSSDC Master Catalog

Two Line Element Set (TLE):
1 28737U 05024A   17292.77892517  .00001127  00000-0  10611-3 0  9998
2 28737  97.6611 296.8807 0032096 257.3363 102.4258 14.95480482673573
Source of the keplerian elements: AFSPC